Location: LDNL
(36.4545°S, 141.6685°E)
Time: 12:08:02
(UTC+10:00)

Transit 2A Rocket - Visible Passes

Search period start: 08 August 2022 00:00
Search period end: 18 August 2022 00:00
Orbit: 594 x 907 km, 66.7° (Epoch: 07 August)

Date Brightness Start Highest point End Pass type
(mag) Time Alt. Az. Time Alt. Az. Time Alt. Az.
09 Aug 7.1 06:34:23 10° N 06:39:18 34° ENE 06:44:35 10° SE visible
10 Aug 8.0 05:52:56 10° NNE 05:56:46 19° ENE 06:00:48 10° ESE visible
11 Aug 5.4 06:50:19 10° NNW 06:55:53 85° ENE 07:01:55 10° SSE visible
12 Aug 6.3 06:07:49 10° N 06:13:08 49° ENE 06:18:51 10° SE visible
13 Aug 7.3 05:25:53 10° NNE 05:30:31 28° ENE 05:35:27 10° SE visible
14 Aug 8.0 04:44:53 10° NE 04:48:02 15° ENE 04:51:18 10° ESE visible
14 Aug 5.2 06:24:17 10° NW 06:29:52 70° WSW 06:35:54 10° SSE visible
15 Aug 5.5 05:41:28 10° NNW 05:47:00 70° ENE 05:53:00 10° SSE visible
16 Aug 6.5 04:59:10 10° N 05:04:18 39° ENE 05:09:50 10° SE visible
16 Aug 6.0 06:41:57 10° WNW 06:47:00 31° SW 06:52:20 10° S visible
17 Aug 7.3 04:18:28 14° NNE 04:21:44 22° ENE 04:26:12 10° SE visible
17 Aug 5.4 05:58:28 10° NW 06:03:54 51° WSW 06:09:47 10° SSE visible
